Location: Poprad
(49.0500°N, 20.3000°E)
Time: 02:25:26
(UTC+01:00)

ISS - Pass Details

Date: 24 February 2019
Orbit: 406 x 411 km, 51.6° (Epoch: 19 March)

Event Time Altitude Azimuth Distance (km) Brightness Sun altitude
Rises 05:38:15 0° 211° (SSW) 2,313 -0.3 -9.5°
Reaches altitude 10° 05:40:34 10° 197° (SSW) 1,458 -1.1 -9.1°
Maximum altitude 05:43:14 23° 142° (SE) 913 -1.5 -8.7°
Drops below altitude 10° 05:45:54 10° 88° (E) 1,467 0.7 -8.2°
Sets 05:48:15 0° 73° (ENE) 2,332 1.5 -7.8°
